W2GLD-13 Weather Reports


Display with metric or nautical units.
time (UTC)temp
F
wind
direction
speed
MPH
gust
MPH
rain 1hr
in
rain 24hr
in
rain mn
in
humidity
%
barometer
mb
20260509031505 50 0.0 0.0 0.00 0.00 0.00 52 1006.0
20260509030039 50 0.0 0.0 0.00 0.00 0.00 52 1005.9
20260509030005 53 0.0 0.0 0.00 0.00 0.00 59 1005.9
20260509024505 53 0.0 0.0 0.00 0.00 0.00 59 1005.9
20260509023006 53 0.0 0.0 0.00 0.00 0.00 59 1005.9
20260509021506 53 0.0 0.0 0.00 0.00 0.00 59 1005.9
20260509020019 53 0.0 0.0 0.00 0.00 0.00 59 1005.8
20260509020006 59 0.0 2.0 0.00 0.00 0.00 48 1005.3
20260509014505 59 0.0 2.0 0.00 0.00 0.00 48 1005.3
20260509013005 59 0.0 2.0 0.00 0.00 0.00 48 1005.3
20260509011505 59 0.0 2.0 0.00 0.00 0.00 48 1005.3
20260509010019 59 0.0 2.0 0.00 0.00 0.00 48 1005.3
20260509010005 64 360 0.0 6.0 0.00 0.00 0.00 34 1004.8
20260509004505 64 360 0.0 6.0 0.00 0.00 0.00 34 1004.8
20260509003006 64 360 0.0 6.0 0.00 0.00 0.00 34 1004.8
20260509001506 64 360 0.0 6.0 0.00 0.00 0.00 34 1004.8
20260509000019 64 0 1.0 6.0 0.00 0.00 0.00 34 1004.6
20260509000006 64 360 0.0 8.0 0.00 0.00 0.00 35 1004.8
20260508234506 64 360 0.0 8.0 0.00 0.00 0.00 35 1004.8
20260508233006 64 360 0.0 8.0 0.00 0.00 0.00 35 1004.8
20260508231505 64 360 0.0 8.0 0.00 0.00 0.00 35 1004.8
20260508230018 64 0 2.0 8.0 0.00 0.00 0.00 35 1004.7
20260508230005 65 360 0.0 9.0 0.00 0.00 0.00 34 1005.2
20260508224505 65 360 0.0 9.0 0.00 0.00 0.00 34 1005.2
20260508223005 65 360 0.0 9.0 0.00 0.00 0.00 34 1005.2
20260508221505 65 360 0.0 9.0 0.00 0.00 0.00 34 1005.2
20260508220018 65 0 2.0 9.0 0.00 0.00 0.00 34 1005.1
20260508220005 64 360 0.0 10.0 0.00 0.00 0.00 35 1005.5
20260508214506 64 360 0.0 10.0 0.00 0.00 0.00 35 1005.5
20260508213006 64 360 0.0 10.0 0.00 0.00 0.00 35 1005.5
20260508211505 64 360 0.0 10.0 0.00 0.00 0.00 35 1005.5
20260508210020 64 0 2.0 10.0 0.00 0.00 0.00 35 1005.5
20260508210005 64 360 0.0 9.0 0.00 0.00 0.00 33 1006.5
20260508204505 64 360 0.0 9.0 0.00 0.00 0.00 33 1006.5
20260508203005 64 360 0.0 9.0 0.00 0.00 0.00 33 1006.5
20260508201505 64 360 0.0 9.0 0.00 0.00 0.00 33 1006.5
20260508200020 64 0 3.0 9.0 0.00 0.00 0.00 33 1006.6
20260508200005 62 360 0.0 10.0 0.00 0.00 0.00 35 1007.4
20260508194505 62 360 0.0 10.0 0.00 0.00 0.00 35 1007.4
20260508193006 62 360 0.0 10.0 0.00 0.00 0.00 35 1007.4
20260508191506 62 360 0.0 10.0 0.00 0.00 0.00 35 1007.4
20260508190020 63 0 3.0 10.0 0.00 0.00 0.00 35 1007.5
20260508190005 60 360 0.0 11.0 0.00 0.00 0.00 39 1008.0
20260508184505 60 360 0.0 11.0 0.00 0.00 0.00 39 1008.0
20260508183005 60 360 0.0 11.0 0.00 0.00 0.00 39 1008.0
20260508181505 60 360 0.0 11.0 0.00 0.00 0.00 39 1008.0
20260508180020 61 0 2.0 11.0 0.00 0.00 0.00 39 1008.0
20260508180005 59 360 0.0 6.0 0.00 0.00 0.00 38 1009.2
20260508174505 59 360 0.0 6.0 0.00 0.00 0.00 38 1009.2
20260508173005 59 360 0.0 6.0 0.00 0.00 0.00 38 1009.2
20260508171505 59 360 0.0 6.0 0.00 0.00 0.00 38 1009.2
20260508170022 59 0 2.0 6.0 0.00 0.00 0.00 38 1009.2
20260508170006 56 360 0.0 6.0 0.00 0.00 0.00 43 1009.8
20260508164506 56 360 0.0 6.0 0.00 0.00 0.00 43 1009.8
20260508163006 56 360 0.0 6.0 0.00 0.00 0.00 43 1009.8
20260508161505 56 360 0.0 6.0 0.00 0.00 0.00 43 1009.8
20260508160019 56 0 2.0 6.0 0.00 0.00 0.00 43 1009.7
20260508160005 52 360 0.0 4.0 0.00 0.00 0.00 52 1010.1
20260508154505 52 360 0.0 4.0 0.00 0.00 0.00 52 1010.1
20260508153005 52 360 0.0 4.0 0.00 0.00 0.00 52 1010.1
20260508151505 52 360 0.0 4.0 0.00 0.00 0.00 52 1010.1
20260508150019 52 0 1.0 4.0 0.00 0.00 0.00 52 1010.0
20260508150005 49 0.0 3.0 0.00 0.00 0.00 63 1010.5
20260508144506 49 0.0 3.0 0.00 0.00 0.00 63 1010.5
20260508143006 49 0.0 3.0 0.00 0.00 0.00 63 1010.5
20260508141505 49 0.0 3.0 0.00 0.00 0.00 63 1010.5
20260508140020 49 0.0 3.0 0.00 0.00 0.00 63 1010.3
20260508140005 44 0.0 2.0 0.00 0.00 0.00 86 1010.8
20260508134505 44 0.0 2.0 0.00 0.00 0.00 86 1010.8
20260508133005 44 0.0 2.0 0.00 0.00 0.00 86 1010.8
20260508131505 44 0.0 2.0 0.00 0.00 0.00 86 1010.8
20260508130019 44 0.0 2.0 0.00 0.00 0.00 86 1010.5
20260508130005 37 0.0 0.0 0.00 0.00 0.00 94 1010.5
20260508124505 37 0.0 0.0 0.00 0.00 0.00 94 1010.5
20260508123005 37 0.0 0.0 0.00 0.00 0.00 94 1010.5
20260508121506 37 0.0 0.0 0.00 0.00 0.00 94 1010.5
20260508120019 37 0.0 0.0 0.00 0.00 0.00 94 1010.0
20260508120006 37 0.0 0.0 0.00 0.00 0.00 93 1009.9
20260508114505 37 0.0 0.0 0.00 0.00 0.00 93 1009.9
20260508113006 37 0.0 0.0 0.00 0.00 0.00 93 1009.9
20260508111505 37 0.0 0.0 0.00 0.00 0.00 93 1009.9
20260508110019 37 0.0 0.0 0.00 0.00 0.00 93 1009.4
20260508110005 38 0.0 0.0 0.00 0.00 0.00 92 1009.8
20260508104505 38 0.0 0.0 0.00 0.00 0.00 92 1009.8
20260508103005 38 0.0 0.0 0.00 0.00 0.00 92 1009.8
20260508101506 38 0.0 0.0 0.00 0.00 0.00 92 1009.8
20260508100018 39 0.0 0.0 0.00 0.00 0.00 92 1009.3
20260508100006 42 0.0 1.0 0.00 0.00 0.00 88 1010.0
20260508094505 42 0.0 1.0 0.00 0.00 0.00 88 1010.0
20260508093005 42 0.0 1.0 0.00 0.00 0.00 88 1010.0
20260508091505 42 0.0 1.0 0.00 0.00 0.00 88 1010.0
20260508090005 45 0.0 0.0 0.00 0.00 0.00 84 1010.3
20260508084505 45 0.0 0.0 0.00 0.00 0.00 84 1010.3
20260508083005 45 0.0 0.0 0.00 0.00 0.00 84 1010.3
20260508081505 45 0.0 0.0 0.00 0.00 0.00 84 1010.3
20260508080006 46 0.0 2.0 0.00 0.00 0.00 79 1010.4
20260508074505 46 0.0 2.0 0.00 0.00 0.00 79 1010.4
20260508073005 46 0.0 2.0 0.00 0.00 0.00 79 1010.4
20260508071505 46 0.0 2.0 0.00 0.00 0.00 79 1010.4
20260508070005 46 0.0 2.0 0.00 0.00 0.00 78 1010.3
20260508064505 46 0.0 2.0 0.00 0.00 0.00 78 1010.3
20260508063005 46 0.0 2.0 0.00 0.00 0.00 78 1010.3
20260508061505 46 0.0 2.0 0.00 0.00 0.00 78 1010.3
20260508041505 47 0.0 2.0 0.00 0.00 0.00 76 1010.3
20260508040019 47 0.0 2.0 0.00 0.00 0.00 76 1010.0
20260508040005 49 0.0 2.0 0.00 0.00 0.00 65 1010.3
20260508034505 49 0.0 2.0 0.00 0.00 0.00 65 1010.3
20260508033005 49 0.0 2.0 0.00 0.00 0.00 65 1010.3